Overview Statistics Trail Chart Weather Telemetry Raw packets
 

This is the latest recevied weather packets stored in our database for station/object OH6GKW. If no packets are shown the sender has not sent any weather packets the latest 10 day(s).

<< 34 35 36 37 38 39 40 >>
Time Temp. Humidity Pressure Rain* Wind** Luminosity Snow
1788425914 15.56° C 88% 999 hPa 0 mm - 238 W/m² -
1788425627 15.56° C 89% 999 hPa 0 mm - 238 W/m² -
1788425317 15° C 88% 999 hPa 0 mm - 368 W/m² -
1788425009 15° C 92% 998.9 hPa 0 mm - 296 W/m² -
1788424731 14.44° C 92% 998.9 hPa 0 mm - 296 W/m² -
1788424426 14.44° C 92% 998.9 hPa 0 mm - 246 W/m² -
1788424117 14.44° C 92% 999 hPa 0 mm - 181 W/m² -
1788423812 14.44° C 92% 999 hPa 0 mm - 185 W/m² -
1788423527 14.44° C 95% 999 hPa 0 mm - 398 W/m² -
1788423219 13.89° C 96% 999 hPa 0 mm - 194 W/m² -
1788422915 13.89° C 95% 999 hPa 0 mm - 130 W/m² -
1788422636 13.89° C 95% 999 hPa 0 mm - 128 W/m² -
1788422330 13.89° C 96% 998.8 hPa 0 mm - 178 W/m² -
1788422022 13.89° C 96% 998.8 hPa 0 mm - 218 W/m² -
1788421717 13.89° C 97% 998.8 hPa 0 mm - 183 W/m² -
1788421414 13.89° C 97% 998.7 hPa 0 mm - 273 W/m² -
1788421110 13.89° C 97% 998.7 hPa 0 mm - 81 W/m² -
1788420825 13.89° C 97% 998.7 hPa 0 mm - 178 W/m² -
1788420515 13.89° C 98% 998.9 hPa 0 mm - 178 W/m² -
1788420206 13.89° C 98% 998.9 hPa 0 mm - 236 W/m² -
1788419921 13.89° C 97% 998.9 hPa 0 mm - 150 W/m² -
1788419611 13.89° C 98% 998.8 hPa 0 mm - 181 W/m² -
1788419332 13.89° C 98% 998.8 hPa 0 mm - 208 W/m² -
1788419026 13.89° C 98% 998.8 hPa 0 mm - 211 W/m² -
1788418719 13.33° C 98% 998.8 hPa 0 mm - 174 W/m² -

* Rain since midnight (hover to see other rain measurements)
** Current wind speed in m/s (hover to see current wind gust speed)